Year,Month,Day,Hour,Minute,Value (Times are PST for temperature in C)
2016,07,28,00,00,18.80
2016,07,28,00,01,18.80
2016,07,28,00,02,18.80
2016,07,28,00,03,18.80
2016,07,28,00,04,18.80
2016,07,28,00,05,18.80
2016,07,28,00,06,18.80
2016,07,28,00,07,18.80
2016,07,28,00,08,18.80
2016,07,28,00,09,18.80
2016,07,28,00,10,18.80
2016,07,28,00,11,18.80
2016,07,28,00,12,18.70
2016,07,28,00,13,18.70
2016,07,28,00,14,18.70
2016,07,28,00,15,18.60
2016,07,28,00,16,18.60
2016,07,28,00,17,18.60
2016,07,28,00,18,18.60
2016,07,28,00,19,18.60
2016,07,28,00,20,18.50
2016,07,28,00,21,18.50
2016,07,28,00,22,18.40
2016,07,28,00,23,18.40
2016,07,28,00,24,18.40
2016,07,28,00,25,18.40
2016,07,28,00,26,18.40
2016,07,28,00,27,18.40
2016,07,28,00,28,18.40
2016,07,28,00,29,18.40
2016,07,28,00,30,18.40
2016,07,28,00,31,18.40
2016,07,28,00,32,18.40
2016,07,28,00,33,18.40
2016,07,28,00,34,18.40
2016,07,28,00,35,18.40
2016,07,28,00,36,18.40
2016,07,28,00,37,18.40
2016,07,28,00,38,18.40
2016,07,28,00,39,18.40
2016,07,28,00,40,18.40
2016,07,28,00,41,18.40
2016,07,28,00,42,18.40
2016,07,28,00,43,18.40
2016,07,28,00,44,18.30
2016,07,28,00,45,18.30
2016,07,28,00,46,18.30
2016,07,28,00,47,18.30
2016,07,28,00,48,18.20
2016,07,28,00,49,18.20
2016,07,28,00,50,18.20
2016,07,28,00,51,18.20
2016,07,28,00,52,18.20
2016,07,28,00,53,18.10
2016,07,28,00,54,18.10
2016,07,28,00,55,18.10
2016,07,28,00,56,18.10
2016,07,28,00,57,18.00
2016,07,28,00,58,18.00
2016,07,28,00,59,17.90
2016,07,28,01,00,17.90
2016,07,28,01,01,17.90
2016,07,28,01,02,17.90
2016,07,28,01,03,17.80
2016,07,28,01,04,17.80
2016,07,28,01,05,17.80
2016,07,28,01,06,17.80
2016,07,28,01,07,17.70
2016,07,28,01,08,17.70
2016,07,28,01,09,17.70
2016,07,28,01,10,17.70
2016,07,28,01,11,17.60
2016,07,28,01,12,17.60
2016,07,28,01,13,17.60
2016,07,28,01,14,17.60
2016,07,28,01,15,17.50
2016,07,28,01,16,17.50
2016,07,28,01,17,17.40
2016,07,28,01,18,17.40
2016,07,28,01,19,17.40
2016,07,28,01,20,17.50
2016,07,28,01,21,17.50
2016,07,28,01,22,17.50
2016,07,28,01,23,17.50
2016,07,28,01,24,17.60
2016,07,28,01,25,17.60
2016,07,28,01,26,17.60
2016,07,28,01,27,17.60
2016,07,28,01,28,17.60
2016,07,28,01,29,17.60
2016,07,28,01,30,17.50
2016,07,28,01,31,17.50
2016,07,28,01,32,17.50
2016,07,28,01,33,17.50
2016,07,28,01,34,17.40
2016,07,28,01,35,17.40
2016,07,28,01,36,17.40
2016,07,28,01,37,17.40
2016,07,28,01,38,17.30
2016,07,28,01,39,17.30
2016,07,28,01,40,17.30
2016,07,28,01,41,17.30
2016,07,28,01,42,17.30
2016,07,28,01,43,17.30
2016,07,28,01,44,17.30
2016,07,28,01,45,17.20
2016,07,28,01,46,17.20
2016,07,28,01,47,17.20
2016,07,28,01,48,17.20
2016,07,28,01,49,17.20
2016,07,28,01,50,17.20
2016,07,28,01,51,17.20
2016,07,28,01,52,17.20
2016,07,28,01,53,17.20
2016,07,28,01,54,17.20
2016,07,28,01,55,17.20
2016,07,28,01,56,17.20
2016,07,28,01,57,17.20
2016,07,28,01,58,17.20
2016,07,28,01,59,17.20
2016,07,28,02,00,17.20
2016,07,28,02,01,17.20
2016,07,28,02,02,17.20
2016,07,28,02,03,17.20
2016,07,28,02,04,17.20
2016,07,28,02,05,17.10
2016,07,28,02,06,17.10
2016,07,28,02,07,17.10
2016,07,28,02,08,17.10
2016,07,28,02,09,17.10
2016,07,28,02,10,17.10
2016,07,28,02,11,17.00
2016,07,28,02,12,17.00
2016,07,28,02,13,17.00
2016,07,28,02,14,17.00
2016,07,28,02,15,17.00
2016,07,28,02,16,16.90
2016,07,28,02,17,16.90
2016,07,28,02,18,16.80
2016,07,28,02,19,16.80
2016,07,28,02,20,16.80
2016,07,28,02,21,16.70
2016,07,28,02,22,16.60
2016,07,28,02,23,16.60
2016,07,28,02,24,16.50
2016,07,28,02,25,16.40
2016,07,28,02,26,16.40
2016,07,28,02,27,16.30
2016,07,28,02,28,16.30
2016,07,28,02,29,16.20
2016,07,28,02,30,16.20
2016,07,28,02,31,16.10
2016,07,28,02,32,16.10
2016,07,28,02,33,16.00
2016,07,28,02,34,16.00
2016,07,28,02,35,15.90
2016,07,28,02,36,15.80
2016,07,28,02,37,15.80
2016,07,28,02,38,15.80
2016,07,28,02,39,15.70
2016,07,28,02,40,15.70
2016,07,28,02,41,15.60
2016,07,28,02,42,15.60
2016,07,28,02,43,15.50
2016,07,28,02,44,15.50
2016,07,28,02,45,15.40
2016,07,28,02,46,15.30
2016,07,28,02,47,15.30
2016,07,28,02,48,15.20
2016,07,28,02,49,15.20
2016,07,28,02,50,15.10
2016,07,28,02,51,15.10
2016,07,28,02,52,15.00
2016,07,28,02,53,15.00
2016,07,28,02,54,15.00
2016,07,28,02,55,14.90
2016,07,28,02,56,14.90
2016,07,28,02,57,14.80
2016,07,28,02,58,14.80
2016,07,28,02,59,14.80
2016,07,28,03,00,14.70
2016,07,28,03,01,14.70
2016,07,28,03,02,14.70
2016,07,28,03,03,14.60
2016,07,28,03,04,14.60
2016,07,28,03,05,14.60
2016,07,28,03,06,14.60
2016,07,28,03,07,14.50
2016,07,28,03,08,14.50
2016,07,28,03,09,14.50
2016,07,28,03,10,14.50
2016,07,28,03,11,14.50
2016,07,28,03,12,14.40
2016,07,28,03,13,14.40
2016,07,28,03,14,14.40
2016,07,28,03,15,14.40
2016,07,28,03,16,14.40
2016,07,28,03,17,14.40
2016,07,28,03,18,14.40
2016,07,28,03,19,14.40
2016,07,28,03,20,14.40
2016,07,28,03,21,14.40
2016,07,28,03,22,14.40
2016,07,28,03,23,14.40
2016,07,28,03,24,14.40
2016,07,28,03,25,14.40
2016,07,28,03,26,14.40
2016,07,28,03,27,14.40
2016,07,28,03,28,14.40
2016,07,28,03,29,14.40
2016,07,28,03,30,14.40
2016,07,28,03,31,14.40
2016,07,28,03,32,14.40
2016,07,28,03,33,14.40
2016,07,28,03,34,14.40
2016,07,28,03,35,14.50
2016,07,28,03,36,14.50
2016,07,28,03,37,14.50
2016,07,28,03,38,14.50
2016,07,28,03,39,14.50
2016,07,28,03,40,14.50
2016,07,28,03,41,14.50
2016,07,28,03,42,14.50
2016,07,28,03,43,14.60
2016,07,28,03,44,14.60
2016,07,28,03,45,14.60
2016,07,28,03,46,14.60
2016,07,28,03,47,14.60
2016,07,28,03,48,14.60
2016,07,28,03,49,14.60
2016,07,28,03,50,14.60
2016,07,28,03,51,14.60
2016,07,28,03,52,14.60
2016,07,28,03,53,14.60
2016,07,28,03,54,14.60
2016,07,28,03,55,14.60
2016,07,28,03,56,14.70
2016,07,28,03,57,14.70
2016,07,28,03,58,14.70
2016,07,28,03,59,14.70
2016,07,28,04,00,14.70
2016,07,28,04,01,14.70
2016,07,28,04,02,14.70
2016,07,28,04,03,14.70
2016,07,28,04,04,14.70
2016,07,28,04,05,14.70
2016,07,28,04,06,14.80
2016,07,28,04,07,14.80
2016,07,28,04,08,14.80
2016,07,28,04,09,14.80
2016,07,28,04,10,14.80
2016,07,28,04,11,14.80
2016,07,28,04,12,14.80
2016,07,28,04,13,14.80
2016,07,28,04,14,14.80
2016,07,28,04,15,14.80
2016,07,28,04,16,14.80
2016,07,28,04,17,14.90
2016,07,28,04,18,14.90
2016,07,28,04,19,14.90
2016,07,28,04,20,14.90
2016,07,28,04,21,14.90
2016,07,28,04,22,14.90
2016,07,28,04,23,14.90
2016,07,28,04,24,14.90
2016,07,28,04,25,14.90
2016,07,28,04,26,14.90
2016,07,28,04,27,14.90
2016,07,28,04,28,14.90
2016,07,28,04,29,14.90
2016,07,28,04,30,14.90
2016,07,28,04,31,14.90
2016,07,28,04,32,14.90
2016,07,28,04,33,14.90
2016,07,28,04,34,14.90
2016,07,28,04,35,14.90
2016,07,28,04,36,14.90
2016,07,28,04,37,14.80
2016,07,28,04,38,14.80
2016,07,28,04,39,14.80
2016,07,28,04,40,14.80
2016,07,28,04,41,14.80
2016,07,28,04,42,14.70
2016,07,28,04,43,14.70
2016,07,28,04,44,14.70
2016,07,28,04,45,14.70
2016,07,28,04,46,14.70
2016,07,28,04,47,14.60
2016,07,28,04,48,14.60
2016,07,28,04,49,14.60
2016,07,28,04,50,14.60
2016,07,28,04,51,14.50
2016,07,28,04,52,14.50
2016,07,28,04,53,14.40
2016,07,28,04,54,14.40
2016,07,28,04,55,14.40
2016,07,28,04,56,14.40
2016,07,28,04,57,14.30
2016,07,28,04,58,14.30
2016,07,28,04,59,14.30
2016,07,28,05,00,14.30
2016,07,28,05,01,14.30
2016,07,28,05,02,14.30
2016,07,28,05,03,14.30
2016,07,28,05,04,14.30
2016,07,28,05,05,14.30
2016,07,28,05,06,14.30
2016,07,28,05,07,14.30
2016,07,28,05,08,14.30
2016,07,28,05,09,14.30
2016,07,28,05,10,14.30
2016,07,28,05,11,14.30
2016,07,28,05,12,14.30
2016,07,28,05,13,14.30
2016,07,28,05,14,14.30
2016,07,28,05,15,14.30
2016,07,28,05,16,14.30
2016,07,28,05,17,14.30
2016,07,28,05,18,14.30
2016,07,28,05,19,14.30
2016,07,28,05,20,14.30
2016,07,28,05,21,14.30
2016,07,28,05,22,14.30
2016,07,28,05,23,14.30
2016,07,28,05,24,14.30
2016,07,28,05,25,14.30
2016,07,28,05,26,14.30
2016,07,28,05,27,14.40
2016,07,28,05,28,14.40
2016,07,28,05,29,14.40
2016,07,28,05,30,14.40
2016,07,28,05,31,14.40
2016,07,28,05,32,14.40
2016,07,28,05,33,14.40
2016,07,28,05,34,14.40
2016,07,28,05,35,14.40
2016,07,28,05,36,14.40
2016,07,28,05,37,14.40
2016,07,28,05,38,14.40
2016,07,28,05,39,14.40
2016,07,28,05,40,14.40
2016,07,28,05,41,14.40
2016,07,28,05,42,14.40
2016,07,28,05,43,14.40
2016,07,28,05,44,14.40
2016,07,28,05,45,14.40
2016,07,28,05,46,14.40
2016,07,28,05,47,14.40
2016,07,28,05,48,14.40
2016,07,28,05,49,14.40
2016,07,28,05,50,14.50
2016,07,28,05,51,14.50
2016,07,28,05,52,14.50
2016,07,28,05,53,14.50
2016,07,28,05,54,14.60
2016,07,28,05,55,14.60
2016,07,28,05,56,14.60
2016,07,28,05,57,14.60
2016,07,28,05,58,14.60
2016,07,28,05,59,14.60
2016,07,28,06,00,14.60
2016,07,28,06,01,14.60
2016,07,28,06,02,14.60
2016,07,28,06,03,14.60
2016,07,28,06,04,14.60
2016,07,28,06,05,14.60
2016,07,28,06,06,14.60
2016,07,28,06,07,14.70
2016,07,28,06,08,14.70
2016,07,28,06,09,14.70
2016,07,28,06,10,14.70
2016,07,28,06,11,14.70
2016,07,28,06,12,14.70
2016,07,28,06,13,14.70
2016,07,28,06,14,14.70
2016,07,28,06,15,14.70
2016,07,28,06,16,14.70
2016,07,28,06,17,14.70
2016,07,28,06,18,14.70
2016,07,28,06,19,14.70
2016,07,28,06,20,14.70
2016,07,28,06,21,14.70
2016,07,28,06,22,14.80
2016,07,28,06,23,14.80
2016,07,28,06,24,14.80
2016,07,28,06,25,14.80
2016,07,28,06,26,14.80
2016,07,28,06,27,14.80
2016,07,28,06,28,14.80
2016,07,28,06,29,14.80
2016,07,28,06,30,14.80
2016,07,28,06,31,14.90
2016,07,28,06,32,14.90
2016,07,28,06,33,14.90
2016,07,28,06,34,14.90
2016,07,28,06,35,14.90
2016,07,28,06,36,14.90
2016,07,28,06,37,14.90
2016,07,28,06,38,14.90
2016,07,28,06,39,14.90
2016,07,28,06,40,14.90
2016,07,28,06,41,14.90
2016,07,28,06,42,14.90
2016,07,28,06,43,15.00
2016,07,28,06,44,15.00
2016,07,28,06,45,15.00
2016,07,28,06,46,15.00
2016,07,28,06,47,15.00
2016,07,28,06,48,15.00
2016,07,28,06,49,15.10
2016,07,28,06,50,15.10
2016,07,28,06,51,15.10
2016,07,28,06,52,15.10
2016,07,28,06,53,15.10
2016,07,28,06,54,15.20
2016,07,28,06,55,15.20
2016,07,28,06,56,15.20
2016,07,28,06,57,15.20
2016,07,28,06,58,15.30
2016,07,28,06,59,15.30
2016,07,28,07,00,15.30
2016,07,28,07,01,15.30
2016,07,28,07,02,15.30
2016,07,28,07,03,15.40
2016,07,28,07,04,15.40
2016,07,28,07,05,15.40
2016,07,28,07,06,15.50
2016,07,28,07,07,15.50
2016,07,28,07,08,15.50
2016,07,28,07,09,15.60
2016,07,28,07,10,15.60
2016,07,28,07,11,15.60
2016,07,28,07,12,15.60
2016,07,28,07,13,15.70
2016,07,28,07,14,15.70
2016,07,28,07,15,15.70
2016,07,28,07,16,15.80
2016,07,28,07,17,15.80
2016,07,28,07,18,15.80
2016,07,28,07,19,15.90
2016,07,28,07,20,15.90
2016,07,28,07,21,16.00
2016,07,28,07,22,16.00
2016,07,28,07,23,16.10
2016,07,28,07,24,16.10
2016,07,28,07,25,16.20
2016,07,28,07,26,16.30
2016,07,28,07,27,16.30
2016,07,28,07,28,16.30
2016,07,28,07,29,16.40
2016,07,28,07,30,16.40
2016,07,28,07,31,16.40
2016,07,28,07,32,16.50
2016,07,28,07,33,16.50
2016,07,28,07,34,16.60
2016,07,28,07,35,16.60
2016,07,28,07,36,16.70
2016,07,28,07,37,16.70
2016,07,28,07,38,16.80
2016,07,28,07,39,16.80
2016,07,28,07,40,16.90
2016,07,28,07,41,16.90
2016,07,28,07,42,16.90
2016,07,28,07,43,17.00
2016,07,28,07,44,17.10
2016,07,28,07,45,17.10
2016,07,28,07,46,17.20
2016,07,28,07,47,17.30
2016,07,28,07,48,17.30
2016,07,28,07,49,17.40
2016,07,28,07,50,17.50
2016,07,28,07,51,17.60
2016,07,28,07,52,17.60
2016,07,28,07,53,17.70
2016,07,28,07,54,17.70
2016,07,28,07,55,17.80
2016,07,28,07,56,17.80
2016,07,28,07,57,17.80
2016,07,28,07,58,17.80
2016,07,28,07,59,17.90
2016,07,28,08,00,17.90
2016,07,28,08,01,17.90
2016,07,28,08,02,17.90
2016,07,28,08,03,17.90
2016,07,28,08,04,17.90
2016,07,28,08,05,17.90
2016,07,28,08,06,18.00
2016,07,28,08,07,18.00
2016,07,28,08,08,18.00
2016,07,28,08,09,18.00
2016,07,28,08,10,18.00
2016,07,28,08,11,18.10
2016,07,28,08,12,18.10
2016,07,28,08,13,18.10
2016,07,28,08,14,18.10
2016,07,28,08,15,18.10
2016,07,28,08,16,18.10
2016,07,28,08,17,18.20
2016,07,28,08,18,18.20
2016,07,28,08,19,18.20
2016,07,28,08,20,18.20
2016,07,28,08,21,18.30
2016,07,28,08,22,18.30
2016,07,28,08,23,18.30
2016,07,28,08,24,18.30
2016,07,28,08,25,18.30
2016,07,28,08,26,18.20
2016,07,28,08,27,18.20
2016,07,28,08,28,18.20
2016,07,28,08,29,18.10
2016,07,28,08,30,18.10
2016,07,28,08,31,18.00
2016,07,28,08,32,18.00
2016,07,28,08,33,17.90
2016,07,28,08,34,17.90
2016,07,28,08,35,17.90
2016,07,28,08,36,17.80
2016,07,28,08,37,17.80
2016,07,28,08,38,17.80
2016,07,28,08,39,17.70
2016,07,28,08,40,17.70
2016,07,28,08,41,17.70
2016,07,28,08,42,17.70
2016,07,28,08,43,17.60
2016,07,28,08,44,17.60
2016,07,28,08,45,17.60
2016,07,28,08,46,17.60
2016,07,28,08,47,17.50
2016,07,28,08,48,17.50
2016,07,28,08,49,17.50
2016,07,28,08,50,17.50
2016,07,28,08,51,17.50
2016,07,28,08,52,17.40
2016,07,28,08,53,17.40
2016,07,28,08,54,17.40
2016,07,28,08,55,17.40
2016,07,28,08,56,17.40
2016,07,28,08,57,17.30
2016,07,28,08,58,17.40
2016,07,28,08,59,17.30
2016,07,28,09,00,17.30
2016,07,28,09,01,17.30
2016,07,28,09,02,17.30
2016,07,28,09,03,17.40
2016,07,28,09,04,17.40
2016,07,28,09,05,17.40
2016,07,28,09,06,17.40
2016,07,28,09,07,17.40
2016,07,28,09,08,17.40
2016,07,28,09,09,17.50
2016,07,28,09,10,17.50
2016,07,28,09,11,17.50
2016,07,28,09,12,17.50
2016,07,28,09,13,17.50
2016,07,28,09,14,17.50
2016,07,28,09,15,17.50
2016,07,28,09,16,17.50
2016,07,28,09,17,17.60
2016,07,28,09,18,17.60
2016,07,28,09,19,17.60
2016,07,28,09,20,17.50
2016,07,28,09,21,17.50
2016,07,28,09,22,17.50
2016,07,28,09,23,17.50
2016,07,28,09,24,17.50
2016,07,28,09,25,17.50
2016,07,28,09,26,17.50
2016,07,28,09,27,17.50
2016,07,28,09,28,17.50
2016,07,28,09,29,17.50
2016,07,28,09,30,17.60
2016,07,28,09,31,17.60
2016,07,28,09,32,17.50
2016,07,28,09,33,17.50
2016,07,28,09,34,17.50
2016,07,28,09,35,17.40
2016,07,28,09,36,17.40
2016,07,28,09,37,17.40
2016,07,28,09,38,17.40
2016,07,28,09,39,17.40
2016,07,28,09,40,17.40
2016,07,28,09,41,17.30
2016,07,28,09,42,17.30
2016,07,28,09,43,17.30
2016,07,28,09,44,17.20
2016,07,28,09,45,17.20
2016,07,28,09,46,17.20
2016,07,28,09,47,17.20
2016,07,28,09,48,17.20
2016,07,28,09,49,17.10
2016,07,28,09,50,17.10
2016,07,28,09,51,17.00
2016,07,28,09,52,16.90
2016,07,28,09,53,16.90
2016,07,28,09,54,16.80
2016,07,28,09,55,16.70
2016,07,28,09,56,16.70
2016,07,28,09,57,16.60
2016,07,28,09,58,16.50
2016,07,28,09,59,16.40
2016,07,28,10,00,16.40
2016,07,28,10,01,16.30
2016,07,28,10,02,16.30
2016,07,28,10,03,16.30
2016,07,28,10,04,16.30
2016,07,28,10,05,16.30
2016,07,28,10,06,16.30
2016,07,28,10,07,16.30
2016,07,28,10,08,16.30
2016,07,28,10,09,16.30
2016,07,28,10,10,16.30
2016,07,28,10,11,16.30
2016,07,28,10,12,16.40
2016,07,28,10,13,16.40
2016,07,28,10,14,16.40
2016,07,28,10,15,16.50
2016,07,28,10,16,16.60
2016,07,28,10,17,16.60
2016,07,28,10,18,16.60
2016,07,28,10,19,16.70
2016,07,28,10,20,16.70
2016,07,28,10,21,16.70
2016,07,28,10,22,16.80
2016,07,28,10,23,16.80
2016,07,28,10,24,16.90
2016,07,28,10,25,16.90
2016,07,28,10,26,16.90
2016,07,28,10,27,17.00
2016,07,28,10,28,17.00
2016,07,28,10,29,17.10
2016,07,28,10,30,17.10
2016,07,28,10,31,17.10
2016,07,28,10,32,17.20
2016,07,28,10,33,17.20
2016,07,28,10,34,17.20
2016,07,28,10,35,17.20
2016,07,28,10,36,17.20
2016,07,28,10,37,17.20
2016,07,28,10,38,17.20
2016,07,28,10,39,17.30
2016,07,28,10,40,17.30
2016,07,28,10,41,17.30
2016,07,28,10,42,17.30
2016,07,28,10,43,17.30
2016,07,28,10,44,17.40
2016,07,28,10,45,17.40
2016,07,28,10,46,17.40
2016,07,28,10,47,17.50
2016,07,28,10,48,17.50
2016,07,28,10,49,17.60
2016,07,28,10,50,17.60
2016,07,28,10,51,17.60
2016,07,28,10,52,17.60
2016,07,28,10,53,17.60
2016,07,28,10,54,17.70
2016,07,28,10,55,17.70
2016,07,28,10,56,17.70
2016,07,28,10,57,17.70
2016,07,28,10,58,17.70
2016,07,28,10,59,17.70
2016,07,28,11,00,17.70
2016,07,28,11,01,17.70
2016,07,28,11,02,17.70
2016,07,28,11,03,17.70
2016,07,28,11,04,17.70
2016,07,28,11,05,17.70
2016,07,28,11,06,17.70
2016,07,28,11,07,17.70
2016,07,28,11,08,17.60
2016,07,28,11,09,17.60
2016,07,28,11,10,17.50
2016,07,28,11,11,17.40
2016,07,28,11,12,17.40
2016,07,28,11,13,17.30
2016,07,28,11,14,17.30
2016,07,28,11,15,17.30
2016,07,28,11,16,17.30
2016,07,28,11,17,17.20
2016,07,28,11,18,17.20
2016,07,28,11,19,17.20
2016,07,28,11,20,17.20
2016,07,28,11,21,17.20
2016,07,28,11,22,17.20
2016,07,28,11,23,17.20
2016,07,28,11,24,17.30
2016,07,28,11,25,17.30
2016,07,28,11,26,17.30
2016,07,28,11,27,17.30
2016,07,28,11,28,17.40
2016,07,28,11,29,17.30
2016,07,28,11,30,17.30
2016,07,28,11,31,17.30
2016,07,28,11,32,17.30
2016,07,28,11,33,17.30
2016,07,28,11,34,17.40
2016,07,28,11,35,17.40
2016,07,28,11,36,17.40
2016,07,28,11,37,17.50
2016,07,28,11,38,17.50
2016,07,28,11,39,17.50
2016,07,28,11,40,17.60
2016,07,28,11,41,17.60
2016,07,28,11,42,17.60
2016,07,28,11,43,17.60
2016,07,28,11,44,17.60
2016,07,28,11,45,17.60
2016,07,28,11,46,17.60
2016,07,28,11,47,17.60
2016,07,28,11,48,17.60
2016,07,28,11,49,17.60
2016,07,28,11,50,17.60
2016,07,28,11,51,17.60
2016,07,28,11,52,17.70
2016,07,28,11,53,17.70
2016,07,28,11,54,17.70
2016,07,28,11,55,17.70
2016,07,28,11,56,17.70
2016,07,28,11,57,17.80
2016,07,28,11,58,17.80
2016,07,28,11,59,17.80
2016,07,28,12,00,17.80
2016,07,28,12,01,17.80
2016,07,28,12,02,17.80
2016,07,28,12,03,17.90
2016,07,28,12,04,17.90
2016,07,28,12,05,17.90
2016,07,28,12,06,17.90
2016,07,28,12,07,17.90
2016,07,28,12,08,18.00
2016,07,28,12,09,18.00
2016,07,28,12,10,18.00
2016,07,28,12,11,18.00
2016,07,28,12,12,18.00
2016,07,28,12,13,18.00
2016,07,28,12,14,18.00
2016,07,28,12,15,17.90
2016,07,28,12,16,17.90
2016,07,28,12,17,17.90
2016,07,28,12,18,17.90
2016,07,28,12,19,17.90
2016,07,28,12,20,17.90
2016,07,28,12,21,17.90
2016,07,28,12,22,17.90
2016,07,28,12,23,17.90
2016,07,28,12,24,17.90
2016,07,28,12,25,18.00
2016,07,28,12,26,18.00
2016,07,28,12,27,18.10
2016,07,28,12,28,18.10
2016,07,28,12,29,18.10
2016,07,28,12,30,18.10
2016,07,28,12,31,18.10
2016,07,28,12,32,18.10
2016,07,28,12,33,18.10
2016,07,28,12,34,18.10
2016,07,28,12,35,18.10
2016,07,28,12,36,18.20
2016,07,28,12,37,18.20
2016,07,28,12,38,18.20
2016,07,28,12,39,18.20
2016,07,28,12,40,18.30
2016,07,28,12,41,18.30
2016,07,28,12,42,18.30
2016,07,28,12,43,18.30
2016,07,28,12,44,18.40
2016,07,28,12,45,18.40
2016,07,28,12,46,18.50
2016,07,28,12,47,18.50
2016,07,28,12,48,18.60
2016,07,28,12,49,18.60
2016,07,28,12,50,18.60
2016,07,28,12,51,18.70
2016,07,28,12,52,18.70
2016,07,28,12,53,18.80
2016,07,28,12,54,18.80
2016,07,28,12,55,18.90
2016,07,28,12,56,18.90
2016,07,28,12,57,19.00
2016,07,28,12,58,19.10
2016,07,28,12,59,19.10
2016,07,28,13,00,19.10
2016,07,28,13,01,19.20
2016,07,28,13,02,19.20
2016,07,28,13,03,19.20
2016,07,28,13,04,19.20
2016,07,28,13,05,19.30
2016,07,28,13,06,19.30
2016,07,28,13,07,19.30
2016,07,28,13,08,19.30
2016,07,28,13,09,19.40
2016,07,28,13,10,19.40
2016,07,28,13,11,19.40
2016,07,28,13,12,19.40
2016,07,28,13,13,19.50
2016,07,28,13,14,19.50
2016,07,28,13,15,19.60
2016,07,28,13,16,19.60
2016,07,28,13,17,19.60
2016,07,28,13,18,19.70
2016,07,28,13,19,19.70
2016,07,28,13,20,19.70
2016,07,28,13,21,19.70
2016,07,28,13,22,19.70
2016,07,28,13,23,19.80
2016,07,28,13,24,19.80
2016,07,28,13,25,19.80
2016,07,28,13,26,19.80
2016,07,28,13,27,19.90
2016,07,28,13,28,19.90
2016,07,28,13,29,19.90
2016,07,28,13,30,19.90
2016,07,28,13,31,19.90
2016,07,28,13,32,19.90
2016,07,28,13,33,19.90
2016,07,28,13,34,19.90
2016,07,28,13,35,19.90
2016,07,28,13,36,19.90
2016,07,28,13,37,20.00
2016,07,28,13,38,20.00
2016,07,28,13,39,20.10
2016,07,28,13,40,20.10
2016,07,28,13,41,20.10
2016,07,28,13,42,20.10
2016,07,28,13,43,20.20
2016,07,28,13,44,20.20
2016,07,28,13,45,20.20
2016,07,28,13,46,20.30
2016,07,28,13,47,20.30
2016,07,28,13,48,20.30
2016,07,28,13,49,20.30
2016,07,28,13,50,20.30
2016,07,28,13,51,20.30
2016,07,28,13,52,20.30
2016,07,28,13,53,20.40
2016,07,28,13,54,20.40
2016,07,28,13,55,20.40
2016,07,28,13,56,20.40
2016,07,28,13,57,20.50
2016,07,28,13,58,20.50
2016,07,28,13,59,20.60
2016,07,28,14,00,20.60
2016,07,28,14,01,20.60
2016,07,28,14,02,20.60
2016,07,28,14,03,20.70
2016,07,28,14,04,20.70
2016,07,28,14,05,20.70
2016,07,28,14,06,20.70
2016,07,28,14,07,20.70
2016,07,28,14,08,20.80
2016,07,28,14,09,20.80
2016,07,28,14,10,20.80
2016,07,28,14,11,20.90
2016,07,28,14,12,20.90
2016,07,28,14,13,20.90
2016,07,28,14,14,20.90
2016,07,28,14,15,21.00
2016,07,28,14,16,21.00
2016,07,28,14,17,21.00
2016,07,28,14,18,21.10
2016,07,28,14,19,21.10
2016,07,28,14,20,21.10
2016,07,28,14,21,21.10
2016,07,28,14,22,21.10
2016,07,28,14,23,21.10
2016,07,28,14,24,21.10
2016,07,28,14,25,21.10
2016,07,28,14,26,21.10
2016,07,28,14,27,21.10
2016,07,28,14,28,21.10
2016,07,28,14,29,21.10
2016,07,28,14,30,21.10
2016,07,28,14,31,21.10
2016,07,28,14,32,21.10
2016,07,28,14,33,21.20
2016,07,28,14,34,21.20
2016,07,28,14,35,21.20
2016,07,28,14,36,21.20
2016,07,28,14,37,21.20
2016,07,28,14,38,21.20
2016,07,28,14,39,21.20
2016,07,28,14,40,21.20
2016,07,28,14,41,21.30
2016,07,28,14,42,21.30
2016,07,28,14,43,21.30
2016,07,28,14,44,21.30
2016,07,28,14,45,21.30
2016,07,28,14,46,21.30
2016,07,28,14,47,21.40
2016,07,28,14,48,21.40
2016,07,28,14,49,21.40
2016,07,28,14,50,21.40
2016,07,28,14,51,21.40
2016,07,28,14,52,21.50
2016,07,28,14,53,21.50
2016,07,28,14,54,21.60
2016,07,28,14,55,21.60
2016,07,28,14,56,21.70
2016,07,28,14,57,21.70
2016,07,28,14,58,21.70
2016,07,28,14,59,21.80
2016,07,28,15,00,21.80
2016,07,28,15,01,21.80
2016,07,28,15,02,21.90
2016,07,28,15,03,21.90
2016,07,28,15,04,21.90
2016,07,28,15,05,21.90
2016,07,28,15,06,21.90
2016,07,28,15,07,22.00
2016,07,28,15,08,22.00
2016,07,28,15,09,22.00
2016,07,28,15,10,22.10
2016,07,28,15,11,22.10
2016,07,28,15,12,22.20
2016,07,28,15,13,22.20
2016,07,28,15,14,22.20
2016,07,28,15,15,22.20
2016,07,28,15,16,22.20
2016,07,28,15,17,22.20
2016,07,28,15,18,22.10
2016,07,28,15,19,22.10
2016,07,28,15,20,22.10
2016,07,28,15,21,22.10
2016,07,28,15,22,22.10
2016,07,28,15,23,22.10
2016,07,28,15,24,22.10
2016,07,28,15,25,22.10
2016,07,28,15,26,22.10
2016,07,28,15,27,22.20
2016,07,28,15,28,22.20
2016,07,28,15,29,22.20
2016,07,28,15,30,22.20
2016,07,28,15,31,22.20
2016,07,28,15,32,22.20
2016,07,28,15,33,22.30
2016,07,28,15,34,22.30
2016,07,28,15,35,22.30
2016,07,28,15,36,22.30
2016,07,28,15,37,22.30
2016,07,28,15,38,22.30
2016,07,28,15,39,22.30
2016,07,28,15,40,22.30
2016,07,28,15,41,22.30
2016,07,28,15,42,22.30
2016,07,28,15,43,22.30
2016,07,28,15,44,22.30
2016,07,28,15,45,22.20
2016,07,28,15,46,22.20
2016,07,28,15,47,22.20
2016,07,28,15,48,22.20
2016,07,28,15,49,22.10
2016,07,28,15,50,22.10
2016,07,28,15,51,22.10
2016,07,28,15,52,22.00
2016,07,28,15,53,22.00
2016,07,28,15,54,22.00
2016,07,28,15,55,21.90
2016,07,28,15,56,21.90
2016,07,28,15,57,21.90
2016,07,28,15,58,21.90
2016,07,28,15,59,21.80
2016,07,28,16,00,21.80
2016,07,28,16,01,21.70
2016,07,28,16,02,21.70
2016,07,28,16,03,21.70
2016,07,28,16,04,21.70
2016,07,28,16,05,21.70
2016,07,28,16,06,21.70
2016,07,28,16,07,21.60
2016,07,28,16,08,21.60
2016,07,28,16,09,21.60
2016,07,28,16,10,21.60
2016,07,28,16,11,21.60
2016,07,28,16,12,21.60
2016,07,28,16,13,21.60
2016,07,28,16,14,21.50
2016,07,28,16,15,21.50
2016,07,28,16,16,21.50
2016,07,28,16,17,21.50
2016,07,28,16,18,21.50
2016,07,28,16,19,21.50
2016,07,28,16,20,21.50
2016,07,28,16,21,21.50
2016,07,28,16,22,21.50
2016,07,28,16,23,21.50
2016,07,28,16,24,21.50
2016,07,28,16,25,21.50
2016,07,28,16,26,21.50
2016,07,28,16,27,21.50
2016,07,28,16,28,21.60
2016,07,28,16,29,21.60
2016,07,28,16,30,21.70
2016,07,28,16,31,21.70
2016,07,28,16,32,21.70
2016,07,28,16,33,21.70
2016,07,28,16,34,21.80
2016,07,28,16,35,21.80
2016,07,28,16,36,21.80
2016,07,28,16,37,21.80
2016,07,28,16,38,21.80
2016,07,28,16,39,21.80
2016,07,28,16,40,21.80
2016,07,28,16,41,21.80
2016,07,28,16,42,21.80
2016,07,28,16,43,21.80
2016,07,28,16,44,21.80
2016,07,28,16,45,21.80
2016,07,28,16,46,21.80
2016,07,28,16,47,21.80
2016,07,28,16,48,21.80
2016,07,28,16,49,21.80
2016,07,28,16,50,21.80
2016,07,28,16,51,21.80
2016,07,28,16,52,21.80
2016,07,28,16,53,21.80
2016,07,28,16,54,21.80
2016,07,28,16,55,21.80
2016,07,28,16,56,21.80
2016,07,28,16,57,21.80
2016,07,28,16,58,21.80
2016,07,28,16,59,21.80
2016,07,28,17,00,21.70
2016,07,28,17,01,21.70
2016,07,28,17,02,21.70
2016,07,28,17,03,21.70
2016,07,28,17,04,21.70
2016,07,28,17,05,21.70
2016,07,28,17,06,21.70
2016,07,28,17,07,21.80
2016,07,28,17,08,21.80
2016,07,28,17,09,21.70
2016,07,28,17,10,21.70
2016,07,28,17,11,21.70
2016,07,28,17,12,21.70
2016,07,28,17,13,21.70
2016,07,28,17,14,21.70
2016,07,28,17,15,21.70
2016,07,28,17,16,21.70
2016,07,28,17,17,21.60
2016,07,28,17,18,21.60
2016,07,28,17,19,21.60